Location: Dal�� Lhota
(48.7500°N, 14.0167°E)
Time: 07:34:53
(UTC+00:00)

Courier 1B Rocket - Pass Details

Date: 01 August 2021
Orbit: 920 x 1202 km, 28.3° (Epoch: 27 September)

Event Time Altitude Azimuth Distance (km) Brightness Sun altitude
Rises 03:10:09 0° 233° (SW) 3,649 - -4.7°
Exits shadow 03:12:03 - 223° (SW) 3,192 7.0 -4.4°
Reaches altitude 10° 03:15:51 10° 194° (SSW) 2,641 6.9 -3.9°
Maximum altitude 03:16:42 10° 186° (S) 2,614 6.9 -3.8°
Drops below altitude 10° 03:17:32 10° 178° (S) 2,628 7.0 -3.7°
Sets 03:23:06 0° 138° (SE) 3,545 8.1 -2.9°
